1491832800.87,42695,17.44,73808.3,15.57,-20.59,-20.53,0,*4D
1491832802.11,42696,17.44,73810.0,15.57,-21.03,-20.89,0,*47
1491832803.33,42697,17.44,73812.0,15.57,-20.29,-20.15,0,*4A
1491832804.56,42698,17.44,73808.0,15.57,-19.07,-18.93,0,*46
1491832805.77,42699,17.44,73810.5,15.57,-20.25,-20.09,0,*45
1491832807.0,42700,17.44,73806.3,15.57,-20.53,-20.43,0,*4B
1491832808.26,42701,17.44,73808.8,15.59,-19.91,-19.65,0,*4E
1491832809.49,42702,17.44,73806.5,15.61,-19.37,-19.23,0,*48
1491832810.77,42703,17.44,73808.5,15.59,-20.49,-20.35,0,*4C
1491832811.97,42704,17.44,73808.5,15.57,-20.73,-20.63,0,*4F
1491832813.21,42705,17.44,73804.5,15.59,-21.77,-21.77,0,*41
1491832814.47,42706,17.44,73810.5,15.57,-21.87,-21.83,0,*48
1491832815.7,42707,17.44,73806.0,15.57,-21.97,-22.03,0,*43
1491832816.93,42708,17.44,73806.8,15.55,-22.11,-22.03,0,*43
1491832818.19,42709,17.44,73810.3,15.55,-21.39,-21.23,0,*4A
1491832819.42,42710,17.44,73806.0,15.51,-20.89,-20.73,0,*48
1491832820.67,42711,17.44,73808.5,15.53,-19.81,-19.81,0,*4E
1491832821.93,42712,17.44,73808.5,15.53,-20.49,-20.49,0,*4D
1491832823.16,42713,17.44,73808.8,15.53,-20.83,-20.93,0,*4D
1491832824.39,42714,17.44,73806.8,15.53,-21.27,-21.39,0,*44
1491832825.62,42715,17.44,73810.5,15.51,-22.27,-22.57,0,*4F
1491832826.82,42716,17.38,73806.0,15.49,-22.11,-22.27,0,*47
1491832828.05,42717,17.44,73808.8,15.51,-20.05,-20.09,0,*46
1491832829.25,42718,17.44,73808.8,15.49,-19.75,-20.09,0,*4D
1491832830.51,42719,17.44,73808.0,15.49,-20.19,-20.49,0,*48
1491832831.76,42720,17.44,73804.3,15.49,-20.49,-20.99,0,*4A
1491832833.02,42721,17.44,73804.0,15.51,-19.91,-20.35,0,*4B
1491832834.25,42722,17.44,73808.8,15.49,-19.91,-20.49,0,*4A
1491832835.49,42723,17.44,73804.5,15.49,-19.31,-20.05,0,*49
1491832836.72,42724,17.44,73810.0,15.49,-20.49,-21.13,0,*4D
1491832837.91,42725,17.44,73808.5,15.49,-21.47,-22.41,0,*47
1491832839.12,42726,17.38,73804.3,15.49,-21.63,-22.67,0,*46
1491832840.31,42727,17.44,73808.3,15.49,-21.47,-22.41,0,*45
1491832841.59,42728,17.44,73808.0,15.45,-21.23,-22.31,0,*43
1491832842.84,42729,17.44,73806.3,15.47,-20.79,-21.83,0,*44
1491832844.1,42730,17.44,73806.8,15.45,-20.89,-22.17,0,*4F
1491832845.36,42731,17.44,73810.0,15.45,-21.47,-22.77,0,*4B
1491832846.58,42732,17.44,73808.5,15.43,-20.15,-21.43,0,*4C
1491832847.79,42733,17.44,73806.0,15.43,-20.35,-21.73,0,*4C
1491832848.98,42734,17.44,73808.0,15.43,-20.29,-21.73,0,*46
1491832850.18,42735,17.44,73804.5,15.43,-21.43,-22.83,0,*46
1491832851.41,42736,17.44,73810.3,15.39,-22.27,-23.85,0,*4E
1491832852.61,42737,17.44,73806.0,15.39,-22.53,-24.05,0,*43
1491832853.86,42738,17.44,73804.5,15.37,-22.31,-23.89,0,*45
1491832855.07,42739,17.44,73806.8,15.35,-21.77,-23.39,0,*4C
1491832856.3,42740,17.44,73806.3,15.33,-21.73,-23.43,0,*4D
1491832857.55,42741,17.44,73804.8,15.31,-21.83,-23.49,0,*4B
1491832858.78,42742,17.44,73806.8,15.31,-22.31,-23.89,0,*4E
1491832859.98,42743,17.44,73806.5,15.27,-21.77,-23.39,0,*42
1491832861.21,42744,17.44,73804.5,15.27,-21.17,-22.73,0,*4C
1491832862.42,42745,17.44,73804.8,15.27,-19.99,-21.63,0,*42
1491832863.65,42746,17.44,73806.0,15.29,-19.95,-21.43,0,*41
1491832864.92,42747,17.44,73806.3,15.29,-19.41,-20.99,0,*4F
1491832866.15,42748,17.44,73806.8,15.29,-19.95,-21.43,0,*4F
1491832867.37,42749,17.44,73804.3,15.31,-20.29,-21.87,0,*42
1491832868.59,42750,17.44,73806.8,15.31,-20.19,-21.73,0,*42
1491832869.85,42751,17.44,73804.8,15.29,-20.99,-22.57,0,*47
1491832871.08,42752,17.44,73808.5,15.27,-21.03,-22.63,0,*4F
1491832872.32,42753,17.44,73804.5,15.27,-20.69,-22.17,0,*40
1491832873.55,42754,17.44,73806.0,15.27,-20.39,-21.97,0,*49
1491832874.81,42755,17.44,73804.5,15.27,-19.65,-21.03,0,*46
1491832876.02,42756,17.44,73804.8,15.27,-19.75,-21.17,0,*41
1491832877.22,42757,17.44,73804.0,15.27,-20.25,-21.77,0,*49
1491832878.48,42758,17.44,73808.3,15.25,-21.03,-22.67,0,*43
1491832879.73,42759,17.44,73806.5,15.25,-21.09,-22.77,0,*49
1491832881.01,42760,17.44,73806.8,15.25,-21.57,-23.19,0,*41
1491832882.24,42761,17.44,73804.0,15.23,-22.03,-23.65,0,*4F
1491832883.47,42762,17.44,73806.8,15.23,-21.57,-23.09,0,*44
1491832884.7,42763,17.44,73806.8,15.17,-20.25,-21.77,0,*4D
1491832885.98,42764,17.44,73804.0,15.21,-19.27,-20.59,0,*4A
1491832887.24,42765,17.44,73804.8,15.23,-18.93,-20.49,0,*46
1491832888.5,42766,17.44,73806.3,15.17,-20.39,-21.97,0,*4B
1491832889.76,42767,17.44,73808.0,15.21,-20.99,-22.57,0,*4A
1491832890.98,42768,17.44,73810.0,15.17,-21.13,-22.41,0,*44
1491832892.21,42769,17.44,73804.3,15.17,-20.73,-22.27,0,*42
1491832893.44,42770,17.44,73804.5,15.17,-20.59,-22.07,0,*40
1491832894.67,42771,17.44,73808.3,15.13,-19.57,-21.09,0,*4C
1491832895.89,42772,17.44,73806.8,15.13,-19.81,-21.09,0,*44
1491832897.16,42773,17.44,73804.5,15.15,-20.15,-21.53,0,*4B
1491832898.42,42774,17.44,73804.5,15.15,-20.43,-21.83,0,*42
1491832899.64,42775,17.44,73806.0,15.13,-20.29,-21.67,0,*43
1491832900.86,42776,17.44,73806.0,15.13,-20.09,-21.27,0,*46
1491832902.09,42777,17.44,73802.3,15.13,-18.89,-19.95,0,*46
1491832903.3,42778,17.44,73804.8,15.13,-19.81,-21.09,0,*4E
1491832904.58,42779,17.44,73802.3,15.11,-20.19,-21.53,0,*49
1491832905.85,42780,17.44,73806.0,15.11,-20.15,-21.27,0,*40
1491832907.09,42781,17.44,73806.8,15.11,-19.99,-21.39,0,*40
1491832908.31,42782,17.44,73804.5,15.09,-20.79,-22.03,0,*44
1491832909.56,42783,17.44,73804.5,15.11,-20.15,-21.39,0,*4C
1491832910.79,42784,17.44,73804.8,15.09,-21.27,-22.53,0,*4D
1491832911.99,42785,17.44,73804.3,15.05,-21.13,-22.57,0,*43
1491832913.2,42786,17.44,73804.0,15.01,-20.63,-21.77,0,*43
1491832914.49,42787,17.44,73806.5,15.03,-19.65,-21.03,0,*4F
1491832915.76,42788,17.44,73804.3,15.03,-19.37,-20.49,0,*48
1491832917.0,42789,17.44,73806.0,15.01,-18.99,-20.19,0,*4B
1491832918.24,42790,17.44,73806.0,15.01,-19.57,-20.93,0,*42
1491832919.45,42791,17.44,73808.0,15.01,-19.71,-21.13,0,*4E
1491832920.68,42792,17.44,73806.5,15.03,-20.63,-22.27,0,*42
1491832921.95,42793,17.44,73804.3,15.03,-19.31,-20.73,0,*4D
1491832923.21,42794,17.44,73808.0,14.99,-19.07,-20.53,0,*4F
1491832924.46,42795,17.44,73804.0,14.99,-20.83,-22.41,0,*49
1491832925.72,42796,17.44,73804.8,14.95,-21.33,-22.93,0,*43
1491832926.98,42797,17.44,73804.5,14.95,-21.27,-22.93,0,*47
1491832928.22,42798,17.44,73804.0,14.93,-21.53,-23.13,0,*44
1491832929.44,42799,17.44,73804.0,14.91,-21.09,-22.67,0,*4A
1491832930.7,42800,17.44,73802.3,14.89,-21.57,-23.19,0,*4F
1491832931.96,42801,17.44,73808.0,14.87,-21.67,-23.39,0,*41
1491832933.19,42802,17.44,73804.8,14.85,-21.33,-22.93,0,*40
1491832934.43,42803,17.44,73804.3,14.85,-19.81,-21.53,0,*4C
1491832935.67,42804,17.44,73802.5,14.83,-18.69,-20.29,0,*46
1491832936.92,42805,17.44,73806.5,14.83,-18.89,-20.25,0,*45
1491832938.17,42806,17.44,73806.0,14.85,-18.55,-20.15,0,*42
1491832939.43,42807,17.44,73802.5,14.83,-19.61,-21.39,0,*4C
1491832940.69,42808,17.44,73806.0,14.83,-19.23,-20.89,0,*4F
1491832941.98,42809,17.44,73806.5,14.87,-18.89,-20.49,0,*47
1491832943.21,42810,17.44,73806.8,14.85,-18.17,-19.61,0,*4A
1491832944.41,42811,17.44,73804.0,14.85,-18.25,-19.71,0,*4B
1491832945.67,42812,17.44,73806.3,14.87,-17.21,-18.49,0,*4B
1491832946.92,42813,17.44,73804.5,14.87,-17.21,-18.69,0,*48
1491832948.13,42814,17.44,73804.3,14.89,-16.89,-18.21,0,*4E
1491832949.33,42815,17.44,73804.5,14.89,-16.97,-18.21,0,*40
1491832950.57,42816,17.44,73802.5,14.93,-16.79,-17.97,0,*4A
1491832951.8,42817,17.44,73806.0,14.95,-16.89,-18.21,0,*40
1491832953.05,42818,17.44,73804.3,14.95,-16.79,-17.93,0,*46
1491832954.31,42819,17.44,73806.8,14.99,-16.97,-18.35,0,*48
1491832955.59,42820,17.44,73804.3,14.95,-17.93,-19.27,0,*49
1491832956.84,42821,17.44,73806.5,14.99,-17.45,-18.83,0,*40
1491832958.1,42822,17.44,73806.0,15.01,-17.59,-18.93,0,*4F
1491832959.3,42823,17.44,73802.8,15.01,-17.87,-19.37,0,*42
1491832960.53,42824,17.44,73806.8,15.01,-17.45,-18.83,0,*45
1491832961.79,42825,17.44,73806.0,15.03,-17.07,-18.49,0,*46
1491832963.07,42826,17.44,73800.8,15.03,-17.55,-19.23,0,*4F
1491832964.28,42827,17.44,73802.8,15.05,-18.49,-20.09,0,*48
1491832965.53,42828,17.44,73804.5,15.05,-18.01,-19.41,0,*4D
1491832966.76,42829,17.44,73804.3,15.03,-16.93,-18.41,0,*4E
1491832967.99,42830,17.44,73804.0,15.05,-16.65,-18.17,0,*4A
1491832969.24,42831,17.44,73800.0,15.07,-16.51,-18.25,0,*4F
1491832970.47,42832,17.44,73800.5,15.07,-16.45,-18.21,0,*4D
1491832971.72,42833,17.44,73806.3,15.09,-16.23,-18.01,0,*40
1491832973.0,42834,17.44,73804.5,15.11,-15.89,-17.59,0,*4F
1491832974.25,42835,17.44,73804.8,15.11,-16.23,-18.17,0,*48
1491832975.51,42836,17.44,73800.5,15.11,-17.41,-19.37,0,*4D
1491832976.73,42837,17.44,73802.0,15.13,-16.23,-18.17,0,*48
1491832977.96,42838,17.44,73800.8,15.15,-15.99,-18.11,0,*45
1491832979.24,42839,17.44,73802.0,15.15,-15.89,-17.97,0,*44
1491832980.49,42840,17.44,73802.8,15.17,-15.43,-17.49,0,*4D
1491832981.72,42841,17.44,73800.5,15.21,-15.25,-17.31,0,*46
1491832982.98,42842,17.44,73804.8,15.21,-15.29,-17.59,0,*47
1491832984.26,42843,17.44,73806.8,15.25,-16.51,-18.89,0,*4C
1491832985.52,42844,17.44,73804.3,15.25,-16.69,-19.13,0,*42
1491832986.73,42845,17.44,73802.3,15.23,-17.87,-20.43,0,*4B
1491832987.96,42846,17.44,73804.0,15.23,-18.17,-20.79,0,*47
1491832989.2,42847,17.44,73800.3,15.23,-18.01,-20.63,0,*4A
1491832990.44,42848,17.44,73804.3,15.23,-18.01,-20.63,0,*45
1491832991.65,42849,17.44,73806.8,15.23,-17.87,-20.59,0,*4C
1491832992.92,42850,17.44,73802.5,15.17,-16.17,-18.59,0,*40
1491832994.18,42851,17.44,73806.8,15.21,-15.85,-18.25,0,*47
1491832995.44,42852,17.44,73806.0,15.23,-15.89,-18.35,0,*4B
1491832996.69,42853,17.44,73808.3,15.23,-15.89,-18.35,0,*4A
1491832997.93,42854,17.44,73804.0,15.23,-15.95,-18.35,0,*40
1491832999.15,42855,17.44,73802.5,15.23,-15.81,-18.17,0,*44
1491833000.39,42856,17.44,73804.3,15.23,-15.89,-18.45,0,*48
1491833001.62,42857,17.44,73806.0,15.23,-16.37,-18.93,0,*44
1491833002.82,42858,17.44,73802.5,15.23,-16.37,-19.03,0,*43
1491833004.06,42859,17.44,73804.0,15.23,-15.49,-17.97,0,*4B
1491833005.31,42860,17.44,73802.0,15.25,-15.35,-17.87,0,*4D
1491833006.54,42861,17.44,73806.0,15.27,-15.21,-17.83,0,*4F
1491833007.79,42862,17.44,73806.0,15.27,-15.21,-17.93,0,*4D
1491833009.03,42863,17.44,73802.8,15.29,-15.11,-17.63,0,*4E
1491833010.25,42864,17.44,73804.8,15.27,-15.29,-17.83,0,*42
1491833011.5,42865,17.44,73806.8,15.29,-15.29,-17.79,0,*48
1491833012.75,42866,17.44,73804.8,15.29,-15.25,-17.63,0,*4C
1491833013.95,42867,17.44,73802.5,15.31,-15.11,-17.69,0,*49
1491833015.2,42868,17.44,73804.3,15.33,-16.69,-19.51,0,*4D
1491833016.43,42869,17.44,73804.5,15.29,-15.95,-18.49,0,*4F
1491833017.7,42870,17.44,73806.0,15.29,-14.79,-17.21,0,*45
1491833018.95,42871,17.44,73804.8,15.29,-15.29,-17.93,0,*49
1491833020.16,42872,17.44,73806.5,15.31,-15.25,-17.83,0,*4E
1491833021.41,42873,17.44,73802.8,15.31,-15.21,-17.59,0,*4C
1491833022.64,42874,17.5,73806.0,15.31,-15.49,-18.01,0,*47
1491833023.89,42875,17.44,73800.5,15.33,-16.09,-18.79,0,*4C
1491833025.15,42876,17.44,73800.8,15.31,-16.69,-19.57,0,*46
1491833026.41,42877,17.44,73802.0,15.33,-17.59,-20.63,0,*4A
1491833027.64,42878,17.44,73802.5,15.27,-17.63,-20.43,0,*4B
1491833028.88,42879,17.5,73806.8,15.27,-17.41,-20.43,0,*4A
1491833030.12,42880,17.44,73804.3,15.27,-17.55,-20.59,0,*42
1491833031.35,42881,17.44,73804.5,15.23,-17.55,-20.73,0,*4F
1491833032.59,42882,17.44,73804.3,15.23,-17.25,-20.05,0,*4A
1491833033.82,42883,17.44,73802.5,15.23,-16.55,-19.41,0,*47
1491833035.09,42884,17.44,73800.8,15.21,-17.17,-20.09,0,*43
1491833036.31,42885,17.44,73804.0,15.21,-15.95,-18.99,0,*48
1491833037.51,42886,17.44,73802.0,15.23,-16.03,-19.03,0,*47
1491833038.78,42887,17.44,73806.5,15.21,-16.13,-19.13,0,*44
1491833040.06,42888,17.44,73804.0,15.17,-17.21,-20.15,0,*42
1491833041.32,42889,17.44,73806.3,15.17,-16.13,-19.13,0,*4F
1491833042.58,42890,17.44,73800.5,15.21,-16.45,-19.57,0,*41
1491833043.82,42891,17.44,73804.0,15.21,-16.75,-19.75,0,*43
1491833045.06,42892,17.44,73800.8,15.21,-17.31,-20.39,0,*43
1491833046.31,42893,17.44,73806.0,15.21,-16.83,-19.85,0,*47
1491833047.57,42894,17.44,73802.3,15.15,-16.51,-19.51,0,*41
1491833048.84,42895,17.44,73802.3,15.17,-17.25,-20.15,0,*4A
1491833050.1,42896,17.44,73806.3,15.17,-18.21,-21.33,0,*47
1491833051.3,42897,17.44,73806.0,15.13,-19.03,-22.07,0,*47
1491833052.55,42898,17.5,73804.8,15.15,-17.69,-20.83,0,*42
1491833053.79,42899,17.44,73804.3,15.15,-17.35,-20.59,0,*4D
1491833055.05,42900,17.5,73806.5,15.15,-17.49,-20.53,0,*4D
1491833056.25,42901,17.44,73802.5,15.13,-16.93,-19.95,0,*4C
1491833057.47,42902,17.44,73802.3,15.13,-17.69,-20.79,0,*43
1491833058.72,42903,17.44,73804.0,15.13,-18.35,-21.57,0,*49
1491833059.98,42904,17.44,73802.5,15.13,-19.23,-22.47,0,*4A
1491833061.19,42905,17.44,73802.8,15.13,-18.83,-22.07,0,*44
1491833062.41,42906,17.44,73800.8,15.09,-19.07,-22.21,0,*45
1491833063.64,42907,17.44,73804.0,15.09,-19.41,-22.53,0,*43
1491833064.88,42908,17.44,73802.8,15.05,-19.65,-23.09,0,*48
1491833066.12,42909,17.5,73806.0,15.05,-20.15,-23.29,0,*46
1491833067.37,42910,17.5,73806.0,15.01,-20.35,-23.53,0,*45
1491833068.62,42911,17.5,73804.0,14.95,-20.73,-23.99,0,*4C
1491833069.88,42912,17.44,73804.5,14.95,-21.13,-24.21,0,*4C
1491833071.13,42913,17.44,73802.5,14.91,-20.63,-23.95,0,*47
1491833072.33,42914,17.44,73804.0,14.89,-21.63,-24.97,0,*4D
1491833073.56,42915,17.5,73804.5,14.87,-21.17,-24.47,0,*4C
1491833074.84,42916,17.44,73802.0,14.83,-21.03,-24.25,0,*4A
1491833076.06,42917,17.5,73806.8,14.83,-20.73,-23.89,0,*4C
1491833077.32,42918,17.5,73806.3,14.83,-19.71,-22.77,0,*4B
1491833078.56,42919,17.44,73800.8,14.81,-19.51,-22.47,0,*49
1491833079.78,42920,17.5,73806.8,14.81,-20.29,-23.33,0,*44
1491833081.02,42921,17.44,73804.3,14.79,-21.09,-24.15,0,*42
1491833082.25,42922,17.44,73804.0,14.77,-20.99,-24.05,0,*46
1491833083.47,42923,17.44,73804.3,14.77,-20.35,-23.39,0,*49
1491833084.7,42924,17.44,73804.3,14.75,-19.99,-23.09,0,*43
1491833085.96,42925,17.44,73800.5,14.75,-19.47,-22.31,0,*4B
1491833087.19,42926,17.5,73806.5,14.75,-19.17,-22.11,0,*4F
1491833088.47,42927,17.44,73800.5,14.75,-19.85,-22.73,0,*41
1491833089.73,42928,17.44,73802.8,14.75,-19.81,-22.73,0,*4A
1491833090.98,42929,17.44,73802.0,14.75,-20.15,-23.13,0,*4B
1491833092.21,42930,17.44,73804.5,14.75,-19.95,-22.83,0,*49
1491833093.47,42931,17.5,73804.8,14.71,-20.59,-23.49,0,*41
1491833094.72,42932,17.44,73800.8,14.71,-20.93,-23.99,0,*49
1491833095.94,42933,17.44,73802.5,14.69,-20.73,-23.65,0,*4C
1491833097.18,42934,17.44,73800.5,14.69,-19.57,-22.37,0,*41
1491833098.41,42935,17.5,73804.8,14.69,-20.63,-23.65,0,*4B
1491833099.64,42936,17.44,73800.3,14.71,-21.73,-24.77,0,*45
1491833100.91,42937,17.5,73804.0,14.67,-21.57,-24.67,0,*44
1491833102.16,42938,17.5,73802.8,14.65,-20.99,-23.95,0,*40
1491833103.39,42939,17.44,73802.8,14.65,-19.61,-22.57,0,*43
1491833104.62,42940,17.44,73802.3,14.67,-19.95,-23.09,0,*4E
1491833105.85,42941,17.5,73804.0,14.65,-21.57,-24.61,0,*41
1491833107.07,42942,17.5,73804.5,14.65,-21.63,-24.67,0,*43
1491833108.34,42943,17.5,73806.0,14.63,-21.03,-23.99,0,*44
1491833109.56,42944,17.5,73802.8,14.63,-20.73,-23.89,0,*44
1491833110.77,42945,17.44,73800.8,14.61,-21.39,-24.61,0,*49
1491833112.0,42946,17.5,73806.3,14.61,-21.97,-25.13,0,*4A
1491833113.23,42947,17.5,73804.3,14.61,-19.85,-22.93,0,*4C
1491833114.45,42948,17.44,73800.3,14.61,-20.29,-23.49,0,*49
1491833115.7,42949,17.5,73802.5,14.61,-20.15,-23.33,0,*4A
1491833116.93,42950,17.5,73806.0,14.61,-19.71,-23.03,0,*49
1491833118.16,42951,17.44,73800.3,14.63,-19.99,-23.39,0,*45
1491833119.4,42952,17.5,73802.3,14.61,-19.65,-22.93,0,*46
1491833120.66,42953,17.5,73806.0,14.63,-19.31,-22.63,0,*4B
1491833121.86,42954,17.5,73804.3,14.61,-19.03,-22.37,0,*4E
1491833123.14,42955,17.5,73804.3,14.63,-18.89,-22.31,0,*48
1491833124.42,42956,17.5,73804.0,14.63,-19.65,-23.23,0,*4A
1491833125.67,42957,17.5,73806.3,14.63,-19.91,-23.53,0,*47
1491833126.92,42958,17.5,73804.5,14.63,-20.73,-24.41,0,*4A
1491833128.15,42959,17.5,73804.5,14.63,-19.75,-23.39,0,*4F
1491833129.4,42960,17.5,73804.0,14.63,-20.93,-24.87,0,*45
1491833130.59,42961,17.5,73804.5,14.61,-22.07,-26.23,0,*45
1491833131.86,42962,17.5,73804.8,14.61,-21.83,-25.75,0,*49
1491833133.11,42963,17.5,73806.5,14.59,-21.83,-25.87,0,*4E
1491833134.4,42964,17.5,73802.3,14.59,-21.67,-25.71,0,*4A
1491833135.61,42965,17.5,73804.5,14.57,-21.13,-25.13,0,*42
1491833136.85,42966,17.5,73804.3,14.53,-20.89,-24.83,0,*4F
1491833138.1,42967,17.5,73804.3,14.55,-19.95,-23.85,0,*4E
1491833139.33,42968,17.5,73802.3,14.55,-19.91,-23.75,0,*4A
1491833140.59,42969,17.5,73804.0,14.55,-19.03,-23.03,0,*41
1491833141.8,42970,17.5,73802.0,14.57,-19.07,-23.09,0,*45
1491833143.03,42971,17.5,73802.8,14.57,-19.41,-23.39,0,*45
1491833144.24,42972,17.5,73802.8,14.57,-20.09,-24.11,0,*4D
1491833145.49,42973,17.5,73804.5,14.59,-19.81,-23.79,0,*41
1491833146.76,42974,17.5,73806.5,14.59,-19.85,-23.95,0,*40
1491833148.0,42975,17.5,73800.0,14.59,-19.71,-23.75,0,*44
1491833149.28,42976,17.5,73800.5,14.59,-19.65,-23.65,0,*43
1491833150.51,42977,17.5,73802.3,14.61,-19.37,-23.33,0,*4D
1491833151.75,42978,17.5,73802.8,14.63,-20.09,-24.11,0,*40
1491833152.97,42979,17.5,73800.8,14.61,-20.29,-24.15,0,*45
1491833154.22,42980,17.5,73804.5,14.61,-20.49,-24.41,0,*44
1491833155.43,42981,17.5,73800.3,14.61,-20.59,-24.47,0,*42
1491833156.69,42982,17.5,73804.3,14.61,-21.27,-25.29,0,*40
1491833157.89,42983,17.5,73800.8,14.61,-21.13,-24.93,0,*46
1491833159.1,42984,17.5,73800.3,14.61,-20.63,-24.47,0,*4E
1491833160.35,42985,17.5,73800.5,14.59,-21.13,-24.87,0,*4E
1491833161.62,42986,17.5,73800.5,14.59,-21.53,-25.39,0,*4D
1491833162.85,42987,17.5,73802.3,14.59,-21.63,-25.39,0,*4F
1491833164.06,42988,17.5,73800.0,14.57,-21.47,-24.97,0,*4D
1491833165.28,42989,17.5,73802.5,14.59,-21.09,-24.61,0,*41
1491833166.48,42990,17.5,73804.0,14.57,-21.43,-24.93,0,*44
1491833167.71,42991,17.5,73802.5,14.57,-21.57,-24.97,0,*44
1491833168.97,42992,17.5,73800.3,14.59,-21.57,-24.93,0,*4D
1491833170.19,42993,17.5,73802.8,14.57,-21.43,-24.67,0,*4C
1491833171.4,42994,17.5,73800.0,14.57,-21.47,-24.77,0,*4E
1491833172.6,42995,17.5,73806.3,14.57,-22.07,-25.35,0,*4F
1491833173.79,42996,17.5,73802.8,14.57,-22.07,-25.19,0,*42
1491833175.02,42997,17.5,73800.8,14.55,-22.11,-25.23,0,*4F
1491833176.31,42998,17.5,73800.5,14.55,-22.31,-25.55,0,*43
1491833177.55,42999,17.5,73802.3,14.55,-22.57,-25.65,0,*41
1491833178.78,43000,17.5,73802.3,14.53,-21.93,-24.83,0,*4D
1491833180.01,43001,17.5,73800.5,14.53,-21.47,-24.15,0,*4A
1491833181.24,43002,17.5,73804.5,14.53,-21.53,-24.35,0,*4E
1491833182.47,43003,17.5,73802.5,14.53,-21.33,-23.89,0,*49
1491833183.7,43004,17.5,73802.0,14.55,-21.39,-23.89,0,*42
1491833184.93,43005,17.5,73800.8,14.55,-21.93,-24.51,0,*41
1491833186.17,43006,17.5,73802.5,14.53,-23.43,-26.13,0,*4F
1491833187.42,43007,17.5,73802.5,14.55,-22.27,-24.83,0,*40
1491833188.63,43008,17.5,73800.8,14.53,-22.87,-25.39,0,*43
1491833189.84,43009,17.5,73800.0,14.53,-22.57,-24.97,0,*4A
1491833191.07,43010,17.5,73806.0,14.53,-22.41,-24.71,0,*4D
1491833192.34,43011,17.5,73806.3,14.49,-21.97,-24.11,0,*49
1491833193.59,43012,17.5,73802.3,14.49,-22.31,-24.57,0,*47
1491833194.82,43013,17.5,73802.3,14.47,-23.03,-25.23,0,*4A
1491833196.1,43014,17.5,73802.0,14.49,-22.77,-24.87,0,*4E
1491833197.33,43015,17.5,73800.5,14.47,-22.67,-24.83,0,*44
1491833198.53,43016,17.5,73802.8,14.47,-22.57,-24.61,0,*48
1491833199.75,43017,17.5,73802.8,14.47,-23.23,-25.23,0,*4C
1491833200.98,43018,17.5,73802.8,14.47,-23.23,-25.23,0,*43
1491833202.21,43019,17.5,73804.0,14.47,-23.79,-25.81,0,*45
1491833203.48,43020,17.5,73802.5,14.45,-23.69,-25.81,0,*4C
1491833204.71,43021,17.5,73802.3,14.43,-24.57,-26.55,0,*4B
1491833205.92,43022,17.5,73804.8,14.43,-24.35,-26.39,0,*46
1491833207.15,43023,17.5,73804.0,14.43,-23.85,-25.87,0,*4D
1491833208.4,43024,17.5,73802.5,14.41,-23.33,-25.09,0,*43
1491833209.66,43025,17.5,73800.0,14.39,-22.77,-24.25,0,*43
1491833210.88,43026,17.5,73802.0,14.39,-23.79,-25.61,0,*4E
1491833212.1,43027,17.5,73802.3,14.39,-24.11,-25.91,0,*49
1491833213.34,43028,17.5,73800.0,14.39,-24.05,-25.75,0,*49
1491833214.55,43029,17.5,73800.5,14.39,-23.59,-25.23,0,*45
1491833215.81,43030,17.5,73800.5,14.37,-23.53,-25.09,0,*41
1491833217.06,43031,17.5,73804.3,14.37,-22.67,-24.15,0,*4A
1491833218.32,43032,17.5,73802.5,14.37,-22.83,-24.25,0,*40
1491833219.58,43033,17.5,73804.5,14.37,-23.13,-24.41,0,*4B
1491833220.86,43034,17.5,73802.8,14.37,-22.73,-24.11,0,*4E
1491833222.09,43035,17.5,73802.8,14.39,-23.33,-24.77,0,*44
1491833223.34,43036,17.5,73800.5,14.35,-23.99,-25.29,0,*41
1491833224.6,43037,17.5,73802.5,14.37,-23.33,-24.31,0,*4A
1491833225.83,43038,17.5,73804.3,14.35,-23.43,-24.67,0,*43
1491833227.06,43039,17.5,73802.8,14.37,-23.79,-24.93,0,*42
1491833228.32,43040,17.5,73800.5,14.37,-24.97,-26.13,0,*41
1491833229.58,43041,17.5,73800.3,14.35,-23.95,-25.03,0,*45
1491833230.82,43042,17.5,73802.0,14.35,-23.69,-24.83,0,*4C
1491833232.03,43043,17.5,73806.3,14.35,-23.59,-24.51,0,*41
1491833233.23,43044,17.5,73804.5,14.35,-23.59,-24.57,0,*40
1491833234.49,43045,17.5,73802.3,14.35,-23.23,-24.21,0,*4D
1491833235.74,43046,17.5,73802.8,14.35,-23.19,-24.15,0,*40
1491833236.96,43047,17.5,73806.0,14.35,-23.23,-24.05,0,*49
1491833238.21,43048,17.5,73800.3,14.35,-23.69,-24.67,0,*4C
1491833239.44,43049,17.5,73802.3,14.35,-24.31,-25.29,0,*4C
1491833240.7,43050,17.5,73800.0,14.37,-23.99,-24.77,0,*49
1491833241.93,43051,17.5,73806.0,14.35,-24.57,-25.45,0,*4F
1491833243.14,43052,17.5,73804.0,14.35,-24.35,-25.19,0,*41
1491833244.4,43053,17.5,73800.8,14.33,-23.39,-24.21,0,*47
1491833245.68,43054,17.5,73800.5,14.33,-23.99,-24.71,0,*4F
1491833246.91,43055,17.5,73804.0,14.33,-25.19,-26.03,0,*47
1491833248.13,43056,17.5,73804.5,14.31,-25.49,-26.39,0,*4A
1491833249.33,43057,17.5,73802.5,14.31,-25.09,-25.91,0,*4E
1491833250.55,43058,17.5,73802.3,14.27,-24.93,-25.81,0,*45
1491833251.79,43059,17.5,73802.3,14.27,-24.11,-24.61,0,*41
1491833253.04,43060,17.5,73800.0,14.25,-23.43,-24.11,0,*4E
1491833254.29,43061,17.5,73802.5,14.27,-23.03,-23.53,0,*48
1491833255.5,43062,17.5,73802.5,14.27,-22.87,-23.43,0,*47
1491833256.71,43063,17.5,73802.0,14.31,-22.97,-23.59,0,*4B
1491833257.92,43064,17.5,73802.5,14.31,-22.97,-23.59,0,*4C
1491833259.15,43065,17.5,73802.3,14.33,-23.09,-23.59,0,*49
1491833260.38,43066,17.5,73802.8,14.31,-23.23,-23.75,0,*4E
1491833261.63,43067,17.5,73802.5,14.33,-23.33,-23.89,0,*4F
1491833262.88,43068,17.5,73800.8,14.33,-23.23,-23.59,0,*4C
1491833264.12,43069,17.5,73802.3,14.33,-23.59,-24.05,0,*4E
1491833265.35,43070,17.5,73802.8,14.31,-24.21,-24.61,0,*4E
1491833266.6,43071,17.5,73802.0,14.33,-23.69,-24.05,0,*44
1491833267.86,43072,17.5,73802.3,14.31,-23.29,-23.49,0,*4E
1491833269.12,43073,17.5,73802.0,14.33,-23.19,-23.43,0,*44
1491833270.37,43074,17.5,73804.0,14.33,-23.39,-23.69,0,*49
1491833271.61,43075,17.5,73806.3,14.33,-23.69,-24.05,0,*40
1491833272.87,43076,17.5,73802.5,14.33,-23.99,-24.31,0,*4B
1491833274.12,43077,17.5,73806.3,14.35,-24.87,-25.29,0,*4C
1491833275.34,43078,17.5,73802.8,14.31,-26.49,-27.07,0,*49
1491833276.54,43079,17.5,73802.3,14.27,-27.07,-27.55,0,*43
1491833277.82,43080,17.5,73800.8,14.25,-26.13,-26.55,0,*42
1491833279.06,43081,17.5,73802.0,14.25,-25.23,-25.61,0,*47
1491833280.32,43082,17.5,73806.5,14.21,-25.55,-26.07,0,*42
1491833281.56,43083,17.5,73802.0,14.21,-24.77,-25.23,0,*47
1491833282.79,43084,17.5,73804.3,14.23,-25.35,-25.71,0,*42
1491833284.05,43085,17.5,73802.0,14.21,-25.39,-25.71,0,*4D
1491833285.28,43086,17.5,73804.0,14.19,-24.77,-25.19,0,*40
1491833286.5,43087,17.5,73804.3,14.19,-25.19,-25.65,0,*43
1491833287.73,43088,17.5,73804.3,14.17,-25.09,-25.29,0,*4B
1491833288.96,43089,17.5,73802.3,14.17,-24.83,-25.13,0,*40
1491833290.2,43090,17.5,73802.3,14.17,-24.31,-24.71,0,*44
1491833291.44,43091,17.5,73804.0,14.17,-24.25,-24.47,0,*45
1491833292.69,43092,17.5,73802.8,14.17,-25.29,-25.55,0,*49
1491833293.92,43093,17.5,73806.3,14.17,-26.07,-26.55,0,*44
1491833295.15,43094,17.5,73804.5,14.13,-26.45,-26.77,0,*41
1491833296.35,43095,17.5,73802.8,14.13,-25.65,-25.87,0,*4D
1491833297.57,43096,17.5,73800.8,14.13,-25.61,-26.13,0,*44
1491833298.83,43097,17.5,73802.8,14.13,-26.33,-26.81,0,*4A